Location: Azat
(46.0765°N, 1.7600°E)
Time: 09:59:50
(UTC+00:00)

Landsat 7 - Pass Details

Date: 09 April 2020
Orbit: 701 x 703 km, 98.1° (Epoch: 04 June)

Event Time Altitude Azimuth Distance (km) Brightness Sun altitude
Exits shadow 21:25:27 60° 245° (WSW) 805 4.1 -26.5°
Maximum altitude 21:25:40 61° 259° (W) 800 4.1 -26.6°
Drops below altitude 10° 21:30:24 10° 340° (NNW) 2,181 7.2 -27.1°
Sets 21:32:42 0° 344° (NNW) 3,104 8.2 -27.4°
